Terminal Aerodrome Forecast
Issued by NWS

Home | Current Version | Previous Version | Text Only | Print | Product List | Glossary On
Versions: 1 2 3 4 5 6 7 8 9 10 11 12 13 14 15 16 17 18 19 20
038
FTUS42 KGSP 222336
TAFGMU
TAF
KGMU 222336Z 2300/2324 14003KT P6SM VCSH SCT040 BKN080
     FM230800 22004KT 4SM -SHRA BR OVC007
     FM231500 24006KT 3SM -SHRA BR OVC007
     FM231800 23006KT 4SM -SHRA BR OVC020 PROB30 2318/2324 2SM TSRA
      OVC015CB=

USA.gov is the U.S. government's official web portal to all federal, state and local government web resources and services.